Content
SEND FEEDBACK

Daily
Averages
Monthly
Summary
United States of America

AUBURN, CALIFORNIA


Home > North America > United States > California
Elevation: 1279 feet     Latitude: 38 53N     Longitude: 121 04W

WEATHER
 
SELECT A DAY
Number of Records: 296,714;   Date Range: 8/19/02 - 9/30/14
 
SHARE

PRINT THIS DATA

[ ← Previous Day ]
WEATHER ALMANAC - AUGUST 18, 2013
[ Next Day → ]
[ °C ]   °F
Weather ElementAverageHighLow
Temperature83.2 °F96.8 °F (4:15 pm)69.8 °F (6:55 am)
Dewpoint51.1 °F60.8 °F (4:50 pm)44.6 °F (5:35 am)
Humidity34 %54 % (4:50 pm)21 % (5:15 pm)
Barometer29.89 in30.10 in (4:50 pm)29.81 in (7:55 pm)
Wind Speed3.2 mph8.1 mph (2:35 am)
Weather ElementAverage
Visibility8.9 mi
Wind DirectionESE (103.6 °)

Weather ElementTotal
Precipitation---
Cooling Degree Days18.3 (Base 65)
Growing Degree Days33.3 (Base 50)
Averaged from 72 records on August 18, 2013
WEATHER CONDITIONS BREAKOUT
WIND DIRECTION BREAKOUT
WEATHER BY HOUR - AUGUST 18, 2013
[ °C ]   °F
Local TimeTemperatureDewpointHumidityBarometerVisibilityWind DirectionWind SpeedGust SpeedPrecipitationEventsConditions
12:35 AM73.4 °F53.6 °F50 %29.90 in10.0 miEast (90°)4.6 mphClear
12:55 AM73.4 °F53.6 °F50 %29.89 in10.0 miEast (100°)3.5 mphClear
1:15 AM73.4 °F51.8 °F47 %29.89 in10.0 miEast (90°)4.6 mphClear
1:35 AM71.6 °F51.8 °F50 %29.89 in10.0 miEast (90°)3.5 mphClear
1:55 AM71.6 °F51.8 °F50 %29.88 in10.0 miESE (110°)5.8 mphClear
2:15 AM73.4 °F50.0 °F44 %29.88 in10.0 miEast (100°)6.9 mphClear
2:35 AM73.4 °F48.2 °F41 %29.89 in10.0 miEast (80°)8.1 mphClear
2:55 AM71.6 °F48.2 °F43 %29.88 in10.0 miCalmClear
3:15 AM71.6 °F48.2 °F43 %29.88 in10.0 miCalmClear
3:35 AM71.6 °F48.2 °F43 %29.88 in10.0 miCalmClear
3:55 AM71.6 °F48.2 °F43 %29.88 in10.0 miEast (90°)5.8 mphClear
4:15 AM73.4 °F46.4 °F38 %29.88 in10.0 miEast (90°)6.9 mphClear
4:35 AM73.4 °F46.4 °F38 %29.88 in10.0 miEast (100°)5.8 mphClear
4:55 AM73.4 °F46.4 °F38 %29.88 in10.0 miEast (90°)4.6 mphClear
5:15 AM71.6 °F46.4 °F41 %29.88 in10.0 miEast (100°)5.8 mphClear
5:35 AM71.6 °F44.6 °F38 %29.88 in10.0 miEast (100°)4.6 mphClear
5:55 AM71.6 °F46.4 °F41 %29.88 in10.0 miESE (110°)5.8 mphClear
6:15 AM71.6 °F44.6 °F38 %29.89 in7.0 miEast (100°)5.8 mphClear
6:35 AM71.6 °F44.6 °F38 %29.89 in7.0 miEast (90°)4.6 mphClear
6:55 AM69.8 °F46.4 °F43 %29.89 in6.0 miCalmClear
7:15 AM71.6 °F46.4 °F41 %29.90 in7.0 miCalmClear
7:35 AM71.6 °F46.4 °F41 %29.90 in5.0 miCalmClear
7:55 AM73.4 °F46.4 °F38 %29.91 in5.0 miCalmClear
8:15 AM75.2 °F46.4 °F36 %29.91 in2.5 miEast (100°)3.5 mphClear
8:35 AM78.8 °F46.4 °F32 %29.91 in1.8 miEast (90°)4.6 mphClear
8:55 AM78.8 °F48.2 °F34 %29.92 in2.0 miCalmClear
9:15 AM80.6 °F48.2 °F32 %29.92 in2.0 miCalmClear
9:35 AM82.4 °F51.8 °F35 %29.92 in3.0 miCalmClear
9:55 AM82.4 °F51.8 °F35 %29.93 in4.0 miCalmClear
10:15 AM84.2 °F51.8 °F33 %29.93 in4.0 miCalmClear
10:35 AM86.0 °F53.6 °F33 %29.93 in9.0 miWest (270°)3.5 mphClear
10:55 AM87.8 °F53.6 °F31 %29.92 in9.0 miNW (310°)3.5 mphClear
11:15 AM86.0 °F51.8 °F31 %29.93 in10.0 miCalmClear
11:35 AM87.8 °F53.6 °F31 %29.92 in9.0 miWSW (250°)5.8 mphClear
11:55 AM87.8 °F53.6 °F31 %29.92 in10.0 miCalmClear
12:15 PM89.6 °F53.6 °F29 %29.92 in9.0 miWest (270°)5.8 mphClear
12:35 PM91.4 °F53.6 °F28 %29.92 in10.0 miWNW (300°)5.8 mphClear
12:55 PM91.4 °F53.6 °F28 %29.91 in9.0 miWSW (240°)5.8 mphClear
1:15 PM91.4 °F53.6 °F28 %29.91 in10.0 miWest (260°)5.8 mphClear
1:35 PM91.4 °F53.6 °F28 %29.91 in10.0 miWSW (250°)3.5 mphClear
1:55 PM91.4 °F53.6 °F28 %29.91 in10.0 miWest (270°)5.8 mphClear
2:15 PM93.2 °F53.6 °F26 %29.91 in10.0 miSSW (200°)3.5 mphClear
2:35 PM93.2 °F53.6 °F26 %29.90 in10.0 miSSW (200°)6.9 mphClear
2:55 PM95.0 °F53.6 °F25 %29.89 in10.0 miSW (230°)8.1 mphClear
3:15 PM95.0 °F53.6 °F25 %29.89 in10.0 miSW (220°)3.5 mphClear
3:35 PM95.0 °F51.8 °F23 %29.88 in10.0 miCalmClear
3:55 PM95.0 °F51.8 °F23 %29.88 in10.0 miSW (220°)3.5 mphClear
4:15 PM96.8 °F51.8 °F22 %29.87 in10.0 miWest (270°)4.6 mphClear
4:35 PM96.8 °F51.8 °F22 %29.87 in10.0 miSouth (190°)6.9 mphClear
4:50 PM78.8 °F60.8 °F54 %30.10 in10.0 miCalmClear
4:55 PM95.0 °F51.8 °F23 %29.87 in10.0 miSW (220°)5.8 mphClear
5:15 PM93.2 °F48.2 °F21 %29.86 in10.0 miSW (230°)5.8 mphClear
5:35 PM93.2 °F51.8 °F24 %29.86 in10.0 miCalmClear
5:55 PM95.0 °F51.8 °F23 %29.84 in10.0 miWest (260°)5.8 mphClear
6:15 PM95.0 °F51.8 °F23 %29.85 in10.0 miCalmClear
6:35 PM95.0 °F50.0 °F22 %29.85 in10.0 miCalmClear
6:55 PM95.0 °F51.8 °F23 %29.85 in10.0 miCalmClear
7:15 PM93.2 °F51.8 °F24 %29.85 in10.0 miCalmClear
7:35 PM93.2 °F51.8 °F24 %29.86 in10.0 miCalmClear
7:55 PM93.2 °F51.8 °F24 %29.81 in10.0 miWNW (290°)6.9 mphClear
8:15 PM89.6 °F53.6 °F29 %29.83 in10.0 miWSW (250°)5.8 mphClear
8:35 PM87.8 °F53.6 °F31 %29.84 in10.0 miSW (220°)4.6 mphClear
8:55 PM87.8 °F55.4 °F33 %29.85 in10.0 miNE (40°)3.5 mphClear
9:15 PM84.2 °F53.6 °F35 %29.86 in10.0 miCalmClear
9:35 PM78.8 °F53.6 °F42 %29.86 in10.0 miCalmClear
9:55 PM80.6 °F53.6 °F39 %29.87 in10.0 miCalmClear
10:15 PM82.4 °F55.4 °F39 %29.88 in10.0 miCalmClear
10:35 PM84.2 °F53.6 °F35 %29.87 in10.0 miCalmClear
10:55 PM82.4 °F53.6 °F37 %29.87 in10.0 miCalmClear
11:15 PM82.4 °F53.6 °F37 %29.87 in10.0 miSSE (150°)5.8 mphClear
11:35 PM82.4 °F53.6 °F37 %29.88 in10.0 miNE (50°)6.9 mphClear
11:55 PM82.4 °F53.6 °F37 %29.87 in10.0 miEast (80°)5.8 mphClear
Hourly data recorded from KAUN, located miles away from Auburn, California







STORIES FROM OUR PARTNERS